TIME,DELAY(SENSOR),PRES,OXYGEN,RAWTEMP,T(OPTODE),TCPHASE,FLUOR,BETA(BETA700),BETA(BETA412),BETA(BETA440),CDOM,C(CSC),ED(ED412.40),ED(ED444.00),ED(ED489.70),ED(ED554.30),LU(LU411.80),LU(LU443.40),LU(LU489.60),LU(LU554.10),COMP,TILTX,TILTY,CHECK
1343446728,5809,892.9099731445312000,45.6129302978515600,661.2114257812500000,4.5880851745605470,54.1809082031250000,53,101,85,79,81,15374,2147754779,2147422729,2148006546,2147874624,2147642724,2147062838,2148257179,2147201353,2834,4,13,31250
1343450324,5810,972.5300292968750000,47.4344711303710940,668.8317260742188000,4.3367838859558105,54.0129508972168000,53,99,89,80,82,15373,2147760740,2147421549,2148009865,2147874834,2147644050,2147061997,2148262189,2147200658,3521,4,13,59017
1343453924,5809,985.1400146484375000,47.1803588867187500,669.5220947265625000,4.3139820098876950,54.0574684143066400,52,104,86,79,83,15372,2147761334,2147418048,2148009280,2147874889,2147646893,2147067126,2148263067,2147196269,46,5,13,26675
1343457524,5808,985.5999755859375000,47.3005599975585940,670.8947143554688000,4.2686390876770020,54.0618400573730500,53,98,89,83,82,15370,2147759232,2147422217,2148009755,2147874898,2147645677,2147062939,2148257737,2147199606,204,5,13,17779
1343461124,5810,997.0999755859375000,47.0417785644531250,670.5717163085938000,4.2793102264404300,54.0922889709472660,53,99,90,80,82,15371,2147758473,2147418377,2148010669,2147876352,2147645842,2147058907,2148258953,2147197558,94,5,13,20162
1343464724,5810,988.2800292968750000,46.5468788146972660,671.4987792968750000,4.2486739158630370,54.1725387573242200,53,98,84,80,82,15372,2147758153,2147418779,2148009014,2147874733,2147644873,2147061184,2148259062,2147196452,100,5,13,40006
1343468324,5809,992.1699829101562000,47.8177604675293000,673.3989868164062000,4.1858482360839840,54.0144882202148440,52,99,87,79,82,15369,2147758418,2147420946,2148008978,2147871305,2147645065,2147059785,2148261513,2147198729,3543,4,13,45988
1343471924,5807,993.2800292968750000,47.8821907043457000,673.5300292968750000,4.1815171241760250,54.0055503845214840,52,100,87,80,82,15369,2147757330,2147419437,2148007003,2147875245,2147645860,2147061339,2148257417,2147198491,3567,4,13,43519
1343475524,5811,984.6900024414062000,47.7470092773437500,673.9932250976562000,4.1661968231201170,54.0342903137207000,52,98,86,79,82,15372,2147758317,2147418998,2148006061,2147877065,2147642861,2147056612,2148264822,2147196918,81,5,13,25067
1343479124,5810,992.7500000000000000,48.8786087036132800,674.8850708007812000,4.1366882324218750,53.8858604431152340,52,98,89,80,83,15373,2147758528,2147420662,2148005796,2147875456,2147645302,2147060525,2148261348,2147202404,402,4,13,45742
1343482724,5809,998.0399780273438000,48.4321899414062500,673.8748168945312000,4.1701149940490720,53.9345207214355500,52,99,88,79,81,15369,2147757485,2147419757,2148006811,2147874697,2147640329,2147058486,2148260086,2147201197,3367,4,13,15003
1343486324,5810,998.2600097656250000,47.1037788391113300,673.2739868164062000,4.1899828910827640,54.1122283935546900,53,98,88,80,82,15344,2147757760,2147419840,2148007725,2147875593,2147645266,2147057444,2148262400,2147198802,214,5,13,34360
1343489924,5807,999.2000122070312000,47.3414916992187500,672.4567260742188000,4.2170100212097170,54.0754394531250000,51,99,90,79,82,15366,2147763081,2147421101,2148008804,2147875968,2147644297,2147056612,2148260251,2147201179,402,5,13,61629
1343493524,5813,998.8900146484375000,47.4863090515136700,673.2965698242188000,4.1892380714416500,54.0639305114746100,53,100,90,79,82,15370,2147757275,2147420361,2148008201,2147879378,2147641307,2147064219,2148258340,2147200932,310,4,13,10379
1343497124,5808,994.9099731445312000,46.8168296813964840,673.3773803710938000,4.1865649223327640,54.1545295715332000,52,99,82,79,82,15367,2147758235,2147421330,2148008685,2147875410,2147645174,2147057682,2148257792,2147201956,122,5,13,40734
1343500724,5808,998.7999877929688000,47.3105888366699200,673.3253173828125000,4.1882901191711430,54.0858612060546900,53,97,88,80,81,15369,2147759597,2147419026,2148008905,2147877494,2147642825,2147061074,2148259556,2147202404,316,5,13,2187
1343504324,5809,1007.4299926757812000,47.6936988830566400,673.4453125000000000,4.1843199729919430,54.0374488830566400,53,100,90,78,82,15358,2147761563,2147420845,2148009206,2147874797,2147647341,2147062107,2148259529,2147201782,3331,4,13,43573
1343507924,5810,992.7399902343750000,47.5715484619140600,674.0703735351562000,4.1636428833007810,54.0601692199707000,52,99,89,80,82,15370,2147757659,2147419611,2148010733,2147877321,2147644425,2147062354,2148258112,2147199094,217,5,13,53956
1343511524,5812,1002.2399902343750000,48.1434402465820300,673.8355102539062000,4.1714119911193850,53.9761009216308600,52,98,85,80,82,15369,2147761069,2147421257,2148010185,2147875355,2147644160,2147053412,2148265316,2147198537,20,5,13,17679
1343515124,5812,1007.1099853515625000,47.6764488220214840,673.1165771484375000,4.1951899528503420,54.0333709716796900,52,99,87,78,81,15365,2147759250,2147419264,2148009526,2147873206,2147644717,2147060699,2148260928,2147196562,3239,4,13,60268
1343518724,5809,994.4199829101562000,47.2024803161621100,673.6298217773438000,4.1782169342041020,54.1042404174804700,53,97,91,78,81,15367,2147760987,2147421677,2148008731,2147874432,2147642889,2147060845,2148261942,2147199872,9,5,13,6243
1343522324,5807,998.1900024414062000,48.0762710571289060,674.2852783203125000,4.1565318107604980,53.9914283752441400,53,99,87,78,82,15359,2147763593,2147421037,2148007862,2147875419,2147644150,2147060736,2148254555,2147201380,275,5,13,50132
1343525924,5810,1000.1199951171875000,47.8474197387695300,674.1210937500000000,4.1619658470153810,54.0244216918945300,52,98,89,80,81,15368,2147759561,2147422125,2148008027,2147878080,2147642944,2147061019,2148257462,2147199104,286,4,13,21514
1343529524,5810,1006.2999877929688000,48.0215988159179700,673.8367919921875000,4.1713700294494630,53.9929695129394500,52,98,87,80,82,15364,2147761042,2147423122,2148003090,2147876269,2147646217,2147054436,2148257545,2147196086,3588,4,13,65061
1343533124,5809,1001.3800048828125000,46.9221000671386700,673.4501953125000000,4.1841578483581540,54.1435394287109400,53,98,89,79,81,15364,2147759652,2147422418,2148007744,2147874578,2147644964,2147060544,2148261586,2147200265,124,4,13,3154
1343536724,5808,1006.9000244140625000,47.1076202392578100,672.7521972656250000,4.2072391510009770,54.1109085083007800,53,103,87,78,83,15363,2147762624,2147421741,2148006125,2147879899,2147647277,2147057408,2148261897,2147196992,282,5,13,63015
1343540324,5810,1016.4000244140625000,46.8977890014648440,672.1437988281250000,4.2273540496826170,54.1325302124023440,53,99,86,79,82,15363,2147761024,2147422189,2148005933,2147876032,2147642496,2147057984,2148256676,2147197412,209,5,13,22786
1343543924,5810,1007.1400146484375000,46.6186294555664060,672.6948852539062000,4.2091350555419920,54.1751594543457000,52,96,90,79,80,15363,2147761636,2147419611,2148011392,2147874788,2147640265,2147059812,2148261339,2147197942,55,5,13,41073
1343547524,5809,1001.9199829101562000,46.5997085571289060,672.1083984375000000,4.2285227775573730,54.1697998046875000,52,99,88,79,81,15363,2147761865,2147421284,2148008978,2147875090,2147640539,2147059465,2148255634,2147202450,3590,4,13,24267
1343551124,5810,996.4299926757812000,47.4587516784668000,674.1298828125000000,4.1616730690002440,54.0733299255371100,53,99,87,79,83,15364,2147760018,2147421220,2148008027,2147877568,2147642477,2147061412,2148258779,2147203337,134,4,13,64071
1343554724,5810,1000.6900024414062000,48.2788200378418000,674.6411743164062000,4.1447601318359375,53.9711799621582000,53,97,87,78,81,15368,2147763355,2147417572,2148008841,2147876754,2147643264,2147061019,2148266157,2147200877,86,5,13,21231
1343558324,5808,999.4899902343750000,48.1126098632812500,674.6525878906250000,4.1443810462951660,53.9917793273925800,52,98,90,80,81,15363,2147758646,2147418605,2148007094,2147875620,2147645019,2147061686,2148265106,2147199689,3585,4,13,6531
1343561924,5808,1009.9699707031250000,47.8458404541015600,673.8743286132812000,4.1701297760009770,54.0167388916015600,52,98,88,79,81,15366,2147759314,2147420352,2148008420,2147874450,2147640484,2147061211,2148263808,2147195830,125,4,13,11060
1343565524,5809,1004.2500000000000000,46.9478912353515600,673.6259155273438000,4.1783452033996580,54.1450119018554700,52,99,89,79,82,15365,2147757915,2147419968,2148009600,2147873133,2147646308,2147060982,2148258505,2147198692,198,4,13,34802
1343569124,5807,1003.5499877929688000,47.3366088867187500,674.0025024414062000,4.1658902168273930,54.0891418457031250,52,97,91,79,82,15361,2147765028,2147424018,2148009353,2147872685,2147644470,2147055424,2148261120,2147200685,3539,5,13,63911
1343572724,5809,1013.2600097656250000,47.9931716918945300,673.6978759765625000,4.1759638786315920,53.9966812133789060,52,101,88,79,82,15363,2147762285,2147420379,2148006829,2147876141,2147644306,2147057088,2148259776,2147197504,65,5,13,41895
1343576324,5810,1012.8800048828125000,47.9813690185546900,673.6895751953125000,4.1762409210205080,53.9978599548339840,53,98,87,78,82,15357,2147761344,2147423076,2148010514,2147873819,2147643410,2147063625,2148261165,2147198528,3240,4,13,14901
1343579924,5811,1012.1599731445312000,47.3055191040039060,673.0438232421875000,4.1975960731506350,54.0856399536132800,52,97,86,81,82,15361,2147761910,2147422884,2148010989,2147875620,2147646811,2147059538,2148259291,2147199332,149,4,13,62394
1343583524,5808,1008.4699707031250000,47.1331100463867200,673.9744873046875000,4.1668148040771480,54.1207008361816400,52,99,88,79,82,15360,2147759570,2147420525,2148008896,2147877604,2147646116,2147065225,2148261750,2147199844,3398,4,13,52865
1343587124,5807,1008.3400268554688000,47.2398910522460940,673.7683105468750000,4.1736350059509280,54.1033515930175800,53,112,86,78,82,15360,2147760539,2147421568,2148010852,2147873609,2147645211,2147064475,2148266587,2147197961,3433,5,13,65361
1343590724,5809,1008.5399780273438000,48.0846290588378900,673.9172973632812000,4.1687068939208980,53.9819488525390600,52,99,90,79,82,15360,2147763136,2147421632,2148009106,2147877412,2147646098,2147062793,2148264237,2147198683,2533,4,13,13941
1343591456,5807,1002.6400146484375000,47.7158203125000000,674.0180053710938000,4.1653752326965330,54.0378303527832000,53,99,91,79,81,15363,2147760996,2147419181,2148009773,2147874752,2147648713,2147057545,2148266395,2147198912,451,4,13,61173
